Home > Weather > Wismar > Past weeks

Flag for Germany Past Weather in Wismar, Mecklenburg-Western Pomerania, Germany — Yesterday and Last 2 Weeks

Now
63 °F

Passing clouds.


Feels Like: 63 °F
Forecast: 57 / 71 °F
Wind: 6 mph from Southwest

Location: Laage

Current Time: Jul 30, 2016 at 3:59:08 AM

Latest Report: Jul 30, 2016 at 3:20 AM


Visibility: N/A

Pressure: 29.80 "Hg

Humidity: 88%

Dew Point: 59 °F

Location of WismarLocation

Past Weather in Wismar — Graph

°F

Wismar Temperature Yesterday

Maximum temperature yesterday: 73 °F (at 3:20 PM)
Minimum temperature yesterday: 63 °F (at 2:20 AM)
Average temperature yesterday: 67 °F

High & Low Weather Summary for the Past Weeks

 TemperatureHumidityPressure
High84 °F (Jul 21, 5:20 PM)100% (Jul 16, 11:00 PM)30.18 "Hg (Jul 16, 11:00 PM)
Low52 °F (Jul 16, 4:20 AM)30% (Jul 22, 1:20 PM)29.80 "Hg (Jul 29, 4:20 PM)
Average66 °F73%30.05 "Hg
* Reported Jul 15 2:20 AM — Jul 30 2:20 AM, Wismar, Weather by CustomWeather, © 2016

Note: Actual official high and low records may vary slightly from our data, if they occured in-between our weather recording intervals... More about our weather records

Advertising

Wismar Weather History for the Previous 24 Hours

Scroll right to see more
 ConditionsComfort  
Time TempWeatherWind HumidityBarometerVisibility
2:20 AM
Sat, Jul 30
64 °FPassing clouds.6 mph83%29.80 "HgN/A
1:20 AM64 °FPassing clouds.2 mph83%29.80 "HgN/A
12:20 AM63 °FPassing clouds.5 mph88%29.80 "HgN/A
11:20 PM
Fri, Jul 29
63 °FPassing clouds.3 mph83%29.80 "HgN/A
10:20 PM63 °FPassing clouds.No wind88%29.80 "HgN/A
9:20 PM68 °FPassing clouds.3 mph69%29.80 "HgN/A
8:20 PM72 °FPartly sunny.3 mph61%29.80 "HgN/A
7:20 PM72 °FPartly sunny.7 mph61%29.80 "HgN/A
6:20 PM72 °FSprinkles. Broken clouds.6 mph61%29.80 "HgN/A
5:20 PM73 °FScattered clouds.12 mph57%29.80 "HgN/A
4:20 PM73 °FScattered clouds.10 mph57%29.80 "HgN/A
3:20 PM73 °FScattered clouds.10 mph57%29.83 "HgN/A
2:20 PM72 °FScattered clouds.12 mph61%29.83 "HgN/A
1:20 PM72 °FScattered clouds.10 mph65%29.83 "HgN/A
12:20 PM72 °FScattered clouds.8 mph69%29.83 "HgN/A
11:20 AM68 °FScattered clouds.9 mph78%29.86 "HgN/A
10:20 AM66 °FBroken clouds.9 mph88%29.86 "Hg5 mi
9:20 AM66 °FPartly sunny.7 mph88%29.83 "Hg4 mi
8:48 AM66 °FBroken clouds.6 mph88%29.83 "Hg4 mi
8:20 AM64 °FPartly sunny.6 mph94%29.83 "Hg4 mi
7:20 AM63 °FBroken clouds.6 mph94%29.83 "Hg4 mi
6:20 AM63 °FScattered clouds.5 mph94%29.83 "HgN/A
5:20 AM63 °FPartly cloudy.2 mph94%29.86 "Hg4 mi
5:03 AM63 °FFog.3 mph94%29.86 "Hg3 mi
4:20 AM63 °FPassing clouds.6 mph94%29.86 "HgN/A
3:20 AM63 °FPartly cloudy.2 mph94%29.86 "HgN/A
Weather by CustomWeather, © 2016

See weather overviewHow to use our weather pages